[[{"header":{"parameterUnit":"m.s-1","parameterCategory":2,"la1":30.2991,"la2":30.254,"lo1":-89.0895,"lo2":-89.0444,"dy":0.0017,"dx":0.0017,"nx":28,"ny":28,"refTime":"2023-08-06T21:00:00:Z","depth":"0","parameterNumber":2,"parameterNumberName":"U-component_of_CURRENTS"},"data":[0,0,0,0,0,0,0,0,0,0,0,0,0,0,0,0,0,0,0,0,0,0,0,0,0,0,0,0,0,0,0,0,0,0,0,0,0,0,0,0,0,0,0,0,0,0,0,0,0,0,0,0,0,0,0,0,0,0,0.1942,0.1944,0,0.1972,0.1971,0.197,0.1972,0.1973,0.1974,0.1975,0.1945,0.1943,0.1941,0,0,0,0,0,0,0,0,0,0,0,0,0,0.1956,0.1954,0.1942,0.1944,0.1946,0.1972,0.1971,0.197,0.1971,0.1973,0.1974,0.1975,0.1946,0.1943,0.1941,0,0,0,0,0,0,0,0,0,0,0,0,0,0.1949,0.1953,0.1942,0.1961,0.1964,0.1972,0.1971,0.197,0.1971,0.1973,0.1974,0.1976,0.1946,0.1944,0.1941,0.1894,0,0,0.1933,0.1932,0,0,0,0,0,0,0,0,0.195,0.1947,0.1956,0.1959,0.1963,0.1983,0.1966,0.1947,0.1971,0.1952,0.1975,0.1976,0.1961,0.1957,0.1939,0.1892,0.1891,0.1933,0.1931,0.193,0.1929,0,0,0,0,0,0,0,0.195,0.1946,0.1938,0.1958,0.1963,0.1993,0.1991,0.1962,0.1935,0.1954,0.1958,0.1985,0.196,0.1941,0.1938,0.1891,0.1933,0.1931,0.1929,0.1928,0.2027,0.2031,0,0,0,0,0,0,0.1971,0.1946,0.1938,0.1941,0.1977,0.1992,0.1989,0.1963,0.1936,0.1939,0.1984,0.1985,0.1945,0.1941,0.1937,0.2021,0.193,0.1928,0.1926,0.2023,0.2028,0.2033,0,0,0,0,0,0,0.197,0.1967,0.1937,0.196,0.196,0.1991,0.196,0.1963,0.1942,0.1962,0.1961,0.1964,0.1946,0.1941,0.1985,0.2015,0.1926,0.1924,0.2018,0.2024,0.203,0.2098,0,0,0,0,0,0,0.1969,0.1965,0.1964,0.1959,0.196,0.1954,0.1961,0.1963,0.1965,0.1966,0.1944,0.1943,0.1947,0.1989,0.1982,0.201,0.1922,0.2013,0.2021,0.2028,0.2091,0.2106,0.2119,0,0,0,0,0,0.1968,0.1946,0.1961,0.1964,0.1951,0.1956,0.1957,0.1976,0.1962,0.1958,0.1994,0.1944,0.2035,0.199,0.1981,0.2008,0.2009,0.2019,0.2028,0.2084,0.2103,0.2119,0,0,0,0,0,0,0.1959,0.1946,0.1962,0.1941,0.1964,0.1962,0.1961,0.1964,0.1976,0.1972,0.1978,0.1982,0.2051,0.2023,0.1973,0.2073,0.2019,0.2027,0.2066,0.2083,0.2097,0.2066,0.192,0,0,0,0,0,0.1958,0.1955,0.1947,0.1959,0.1935,0.1941,0.1947,0.1953,0.1968,0.197,0.1981,0.2011,0.2078,0.2074,0.2119,0.2126,0.2118,0.2151,0.2165,0.2177,0.2155,0.2217,0.2232,0.2064,0.2064,0.2063,0,0,0.1996,0.1976,0.1994,0.1964,0.1957,0.1946,0.1941,0.1934,0.1967,0.1964,0.2003,0.2059,0.2105,0.2174,0.2195,0.2143,0.2229,0.2189,0.2198,0.2169,0.2228,0.2243,0.2257,0.207,0.2069,0.2068,0,0,0.2007,0.1995,0.196,0.1959,0.1946,0.1957,0.195,0.1936,0.1957,0.201,0.2063,0.2137,0.2176,0.224,0.2275,0.2378,0.2328,0.2397,0.2398,0.246,0.2473,0.2484,0.2507,0.2519,0.2371,0.2372,0.2372,0,0.2038,0.1993,0.197,0.1916,0.1939,0.1954,0.1932,0.1958,0.1997,0.2027,0.2038,0.2185,0.2215,0.2326,0.2391,0.2401,0.2419,0.232,0.2473,0.2484,0.2493,0.2515,0.2527,0.2376,0.2375,0.2375,0.2375,0,0.2002,0.1984,0.1957,0.1916,0.1929,0.1927,0.1952,0.198,0.2018,0.2064,0.2179,0.2257,0.2332,0.2383,0.2414,0.2517,0.2504,0.2505,0.2411,0.2513,0.2531,0.2543,0.2382,0.2381,0.2379,0.2378,0,0,0.2024,0.1945,0.1948,0.1923,0.1926,0.1923,0.1982,0.2034,0.2064,0.215,0.2218,0.2368,0.2391,0.2436,0.2491,0.2544,0.2647,0.2546,0.2547,0.2536,0.2764,0.277,0.2782,0.2678,0.268,0.2682,0.275,0,0.2008,0.1923,0.1912,0.1914,0.1863,0.1915,0.1969,0.2032,0.2106,0.2179,0.2287,0.2383,0.2419,0.2463,0.253,0.2634,0.268,0.2626,0.2694,0.2694,0.2661,0.2797,0.2681,0.2735,0.2761,0.2763,0.2765,0,0.1942,0.1912,0.1868,0.1866,0.1847,0.1875,0.1949,0.2003,0.2122,0.2173,0.2278,0.2362,0.249,0.25,0.2668,0.2635,0.2696,0.2759,0.2763,0.2741,0.2723,0.264,0.2754,0.2684,0.2782,0.2781,0.2779,0,0.1902,0.1874,0.1852,0.1855,0.1857,0.1873,0.1911,0.1999,0.2047,0.2177,0.2226,0.2373,0.2466,0.2571,0.2722,0.2694,0.2902,0.2866,0.2921,0.2919,0.2817,0.2803,0.2835,0.2969,0.2969,0.2968,0.2968,0,0.1836,0.1825,0.1831,0.1804,0.1823,0.1832,0.187,0.1922,0.2015,0.2081,0.2213,0.2306,0.2495,0.2645,0.2735,0.2886,0.2909,0.2941,0.2955,0.2843,0.2832,0.276,0.2723,0.2971,0.297,0.297,0.2969,0,0.175,0.1754,0.1731,0.1755,0.177,0.1782,0.1837,0.1869,0.195,0.2046,0.2093,0.2289,0.2471,0.2652,0.2852,0.291,0.2977,0.3084,0.2931,0.2927,0.2863,0.2835,0.2831,0.2754,0.311,0.3111,0.3112,0,0.1694,0.165,0.169,0.1703,0.1711,0.1744,0.1768,0.1839,0.1886,0.2037,0.2089,0.2297,0.2443,0.2741,0.2905,0.3065,0.3006,0.3042,0.2964,0.2865,0.2845,0.2777,0.2706,0.2852,0.285,0.2849,0.2848,0,0.1605,0.1619,0.1636,0.1644,0.1671,0.1699,0.1739,0.1769,0.1869,0.1948,0.2095,0.2217,0.2496,0.2667,0.2899,0.2966,0.2898,0.302,0.2962,0.2693,0.2574,0.2503,0.2778,0.2837,0.2838,0.2839,0.284,0.284,0.1595,0.16,0.1609,0.1621,0.1644,0.1652,0.1659,0.1726,0.1797,0.1895,0.2044,0.2165,0.2406,0.2714,0.2802,0.2848,0.2837,0.2775,0.2762,0.2713,0.2603,0.2851,0.2909,0.291,0.2911,0.2912,0.2913,0,0.1592,0.1567,0.1571,0.1585,0.1568,0.1591,0.1636,0.1645,0.171,0.1822,0.1932,0.2096,0.2268,0.2449,0.2625,0.2602,0.2513,0.2548,0.2392,0.2343,0.2599,0.255,0.2477,0.2478,0.2478,0.2478,0.2478,0.2478,0.1586,0.1554,0.1541,0.1508,0.1503,0.1476,0.149,0.1525,0.159,0.1671,0.1733,0.1833,0.2082,0.2314,0.2372,0.2346,0.2234,0.2199,0.2206,0.2347,0.2365,0.2382,0.2328,0.221,0.221,0.1847,0.1844,0.1842]},{"header":{"parameterUnit":"m.s-1","parameterCategory":2,"la1":30.2991,"la2":30.254,"lo1":-89.0895,"lo2":-89.0444,"dy":0.0017,"dx":0.0017,"nx":28,"ny":28,"refTime":"2023-08-06T21:00:00:Z","depth":"0","parameterNumber":3,"parameterNumberName":"V-component_of_CURRENTS"},"data":[0,0,0,0,0,0,0,0,0,0,0,0,0,0,0,0,0,0,0,0,0,0,0,0,0,0,0,0,0,0,0,0,0,0,0,0,0,0,0,0,0,0,0,0,0,0,0,0,0,0,0,0,0,0,0,0,0,0,-0.0155,-0.0156,0,-0.0174,-0.0174,-0.0173,-0.0175,-0.0175,-0.0176,-0.0177,-0.0171,-0.017,-0.017,0,0,0,0,0,0,0,0,0,0,0,0,0,-0.0075,-0.0076,-0.0155,-0.0156,-0.0157,-0.0174,-0.0174,-0.0173,-0.0175,-0.0175,-0.0176,-0.0177,-0.0171,-0.017,-0.017,0,0,0,0,0,0,0,0,0,0,0,0,0,-0.0095,-0.0077,-0.0155,-0.0167,-0.0169,-0.0175,-0.0174,-0.0173,-0.0175,-0.0175,-0.0176,-0.0177,-0.0172,-0.0171,-0.0169,-0.0143,0,0,-0.0166,-0.0166,0,0,0,0,0,0,0,0,-0.0094,-0.0097,-0.0164,-0.0166,-0.0169,-0.0181,-0.0144,-0.0165,-0.0174,-0.0163,-0.0177,-0.0178,-0.0178,-0.0176,-0.0165,-0.0143,-0.0143,-0.0166,-0.0165,-0.0165,-0.0164,0,0,0,0,0,0,0,-0.0093,-0.0096,-0.0153,-0.0166,-0.0168,-0.0157,-0.016,-0.0147,-0.0157,-0.0164,-0.0166,-0.0183,-0.0177,-0.0166,-0.0165,-0.0143,-0.0166,-0.0165,-0.0164,-0.0164,-0.0116,-0.0115,0,0,0,0,0,0,-0.011,-0.0095,-0.0153,-0.0155,-0.0143,-0.0158,-0.0162,-0.0169,-0.0158,-0.016,-0.0182,-0.0183,-0.0167,-0.0166,-0.0164,-0.0142,-0.0165,-0.0164,-0.0163,-0.0116,-0.0115,-0.0115,0,0,0,0,0,0,-0.0108,-0.0115,-0.0152,-0.0133,-0.0138,-0.016,-0.0167,-0.0169,-0.0166,-0.0173,-0.0173,-0.0181,-0.0168,-0.0166,-0.0162,-0.0142,-0.0163,-0.0162,-0.0117,-0.0116,-0.0115,-0.0091,0,0,0,0,0,0,-0.0106,-0.0114,-0.0128,-0.0134,-0.0141,-0.0155,-0.0167,-0.0169,-0.0179,-0.018,-0.0172,-0.0172,-0.0168,-0.0164,-0.0161,-0.0141,-0.0161,-0.0118,-0.0117,-0.0115,-0.0093,-0.009,-0.0087,0,0,0,0,0,-0.0102,-0.0097,-0.0128,-0.0137,-0.0158,-0.0155,-0.0155,-0.0168,-0.0178,-0.0169,-0.0173,-0.0173,-0.0154,-0.0163,-0.016,-0.0138,-0.0118,-0.0117,-0.0116,-0.0094,-0.009,-0.0087,0,0,0,0,0,0,-0.0047,-0.0098,-0.0132,-0.0139,-0.0158,-0.0159,-0.0154,-0.0169,-0.0162,-0.0154,-0.0168,-0.0167,-0.0156,-0.0152,-0.0161,-0.0121,-0.0134,-0.0132,-0.0119,-0.0115,-0.0112,-0.0114,-0.016,0,0,0,0,0,-0.0054,-0.0084,-0.0113,-0.0127,-0.0128,-0.0146,-0.015,-0.015,-0.015,-0.0148,-0.0161,-0.0156,-0.0144,-0.0136,-0.0129,-0.0106,-0.0114,-0.0089,-0.0086,-0.0084,-0.0083,-0.0086,-0.0083,-0.011,-0.011,-0.011,0,0,-0.0041,-0.0077,-0.0094,-0.0123,-0.0131,-0.0115,-0.0146,-0.0132,-0.0126,-0.0146,-0.0143,-0.015,-0.0139,-0.0117,-0.011,-0.0111,-0.0079,-0.0082,-0.008,-0.0081,-0.0084,-0.0082,-0.008,-0.0109,-0.011,-0.011,0,0,-0.0013,-0.0053,-0.0059,-0.0068,-0.0088,-0.009,-0.009,-0.0096,-0.0103,-0.0107,-0.0114,-0.0117,-0.0113,-0.0097,-0.0087,-0.0063,-0.007,-0.0055,-0.0033,-0.0036,-0.0034,-0.0032,-0.0036,-0.0035,-0.0046,-0.0046,-0.0046,0,-0.0009,-0.0013,-0.0055,-0.0048,-0.0054,-0.0078,-0.0053,-0.0054,-0.0068,-0.0072,-0.0104,-0.0103,-0.0101,-0.0063,-0.0057,-0.0055,-0.0062,-0.0047,-0.0032,-0.0031,-0.003,-0.0034,-0.0033,-0.0045,-0.0045,-0.0045,-0.0045,0,0.0026,0.0022,0.0032,0.0014,0.0012,0.0034,0.0021,0.0022,-0.0007,-0.0023,-0.0028,-0.0044,-0.0046,-0.004,-0.0043,-0.0018,-0.0027,-0.0035,-0.0043,-0.0026,-0.0031,-0.0031,-0.0043,-0.0044,-0.0044,-0.0044,0,0,0.0013,0.0044,0.0044,0.0049,0.0049,0.0056,0.0077,0.0081,0.0094,0.0051,0.0052,0.0044,0.0013,0.0021,0.0016,0.0013,0.0012,-0.0006,-0.0007,-0.0013,0.0004,-0.0008,-0.0009,0.0005,0.0005,0.0005,-0.0003,0,0.0038,0.0083,0.0085,0.012,0.0142,0.0134,0.0148,0.015,0.0133,0.0131,0.0101,0.0103,0.0046,0.0052,0.0032,0.0028,0.0014,0.0015,-0.001,-0.001,-0.0025,-0.0008,0.0051,0.0049,-0.0002,-0.0002,-0.0002,0,0.0064,0.008,0.0138,0.0167,0.0177,0.0195,0.0213,0.0228,0.0233,0.0219,0.0201,0.0174,0.0168,0.0112,0.0073,0.0075,0.0035,0.0014,0.0013,-0.0007,-0.0021,0.0023,0.0051,-0.0008,-0.0002,-0.0002,-0.0002,0,0.0068,0.0114,0.016,0.0167,0.0203,0.0218,0.0236,0.025,0.0272,0.0283,0.0298,0.0259,0.026,0.0192,0.012,0.0103,0.0074,0.0051,-0.0003,-0.0004,0.0038,0.004,0.0004,0.0013,0.0013,0.0013,0.0013,0,0.0088,0.0115,0.0166,0.018,0.0217,0.0236,0.0279,0.0294,0.0332,0.037,0.0341,0.0372,0.0278,0.0243,0.0155,0.0078,0.0094,0.0003,-0.0005,0.0048,0.0051,-0.0008,-0.0065,0.0013,0.0013,0.0013,0.0013,0,0.0087,0.0132,0.017,0.0211,0.0224,0.0248,0.0307,0.0349,0.0382,0.0437,0.0449,0.0465,0.0433,0.0327,0.0247,0.0144,0.0031,0.0031,0.0096,0.0094,-0.0023,-0.0081,-0.0189,-0.0194,-0.0025,-0.0025,-0.0025,0,0.0103,0.013,0.0177,0.0214,0.0233,0.0276,0.0319,0.0361,0.0416,0.0497,0.0537,0.0542,0.0566,0.0445,0.0286,0.014,0.0043,0.0073,0.0044,-0.0019,-0.009,-0.017,-0.0171,0.0113,0.0114,0.0115,0.0115,0,0.0104,0.0123,0.0146,0.0223,0.0273,0.0344,0.0409,0.0461,0.0527,0.0592,0.0694,0.0734,0.0636,0.0562,0.0359,0.024,0.0036,0.0081,0.0012,0.0007,-0.0076,-0.0085,0.01,0.0122,0.0121,0.0121,0.012,0.012,0.0088,0.0118,0.0167,0.0237,0.0308,0.0427,0.05,0.06,0.0708,0.0846,0.0833,0.0934,0.0788,0.0555,0.0378,0.0118,0.0068,0.0049,-0.0018,-0.0095,-0.0101,0.0086,0.0095,0.0095,0.0094,0.0093,0.0093,0,0.0082,0.0139,0.0199,0.0298,0.0388,0.0432,0.0575,0.0679,0.084,0.097,0.1067,0.1072,0.0887,0.0637,0.0283,0.0076,-0.0014,-0.0038,-0.0112,-0.0107,0.0079,0.0086,0.01,0.01,0.01,0.01,0.01,0.01,0.01,0.0154,0.0201,0.0349,0.0433,0.0587,0.0689,0.0856,0.0993,0.1209,0.131,0.1366,0.1262,0.0547,0.0113,-0.0012,-0.0179,-0.0238,-0.0316,-0.0162,-0.0158,-0.0154,-0.0159,-0.0197,-0.0198,-0.0437,-0.0439,-0.0441]}],[{"header":{"parameterUnit":"m.s-1","parameterCategory":2,"la1":30.2991,"la2":30.254,"lo1":-89.0895,"lo2":-89.0444,"dy":0.0017,"dx":0.0017,"nx":28,"ny":28,"refTime":"2023-08-06T21:00:00:Z","depth":"2","parameterNumber":2,"parameterNumberName":"U-component_of_CURRENTS"},"data":[0,0,0,0,0,0,0,0,0,0,0,0,0,0,0,0,0,0,0,0,0,0,0,0,0,0,0,0,0,0,0,0,0,0,0,0,0,0,0,0,0,0,0,0,0,0,0,0,0,0,0,0,0,0,0,0,0,0,0.0621,0.0619,0,0.0732,0.0736,0.074,0.0789,0.0786,0.0783,0.078,0.077,0.0773,0.0775,0,0,0,0,0,0,0,0,0,0,0,0,0,0.0368,0.0376,0.0621,0.0619,0.0617,0.0731,0.0736,0.0741,0.079,0.0786,0.0782,0.0778,0.0769,0.0772,0.0776,0,0,0,0,0,0,0,0,0,0,0,0,0,0.0511,0.0378,0.0621,0.063,0.063,0.073,0.0736,0.0742,0.0791,0.0786,0.0781,0.0776,0.0768,0.0772,0.0776,0.0901,0,0,0.0789,0.0791,0,0,0,0,0,0,0,0,0.0503,0.0525,0.0631,0.0629,0.0628,0.0711,0.0641,0.0777,0.0792,0.0766,0.0779,0.0774,0.072,0.0728,0.0811,0.09,0.09,0.0789,0.0792,0.0794,0.0795,0,0,0,0,0,0,0,0.0493,0.0519,0.07,0.0628,0.0627,0.0596,0.0617,0.067,0.0794,0.0768,0.0763,0.0722,0.0723,0.0807,0.081,0.09,0.0789,0.0793,0.0796,0.0797,0.0898,0.0899,0,0,0,0,0,0,0.0422,0.0512,0.0695,0.0699,0.0513,0.0603,0.0627,0.0718,0.0796,0.0794,0.0726,0.0723,0.0802,0.0805,0.0809,0.0828,0.0794,0.0798,0.08,0.0898,0.0898,0.0899,0,0,0,0,0,0,0.0419,0.0444,0.069,0.0571,0.0595,0.061,0.0713,0.0722,0.0785,0.0759,0.0761,0.0771,0.0799,0.0803,0.0897,0.083,0.0799,0.0803,0.0898,0.0898,0.0899,0.0947,0,0,0,0,0,0,0.0415,0.0446,0.0516,0.0572,0.0599,0.0709,0.0714,0.0726,0.0751,0.075,0.0799,0.0795,0.0795,0.0892,0.0901,0.0836,0.0807,0.0898,0.0898,0.0898,0.0946,0.0949,0.0952,0,0,0,0,0,0.0408,0.0434,0.0524,0.0542,0.0692,0.0705,0.0722,0.0733,0.0757,0.0782,0.0868,0.0792,0.0893,0.0902,0.0911,0.0843,0.0898,0.0898,0.0898,0.0944,0.0948,0.0952,0,0,0,0,0,0,0.0361,0.0442,0.0539,0.0604,0.0653,0.0698,0.074,0.0745,0.0851,0.0887,0.0881,0.0886,0.0876,0.0904,0.0911,0.0867,0.0848,0.0851,0.0878,0.0883,0.0886,0.1058,0.081,0,0,0,0,0,0.0395,0.0494,0.053,0.0629,0.0657,0.0735,0.0754,0.0765,0.0827,0.0872,0.0919,0.0946,0.0898,0.0934,0.0912,0.0998,0.1032,0.0931,0.0935,0.0938,0.1082,0.1147,0.1173,0.09,0.09,0.09,0,0,0.0354,0.0479,0.0495,0.0631,0.073,0.0744,0.0747,0.0793,0.0833,0.0855,0.1,0.0951,0.0909,0.0935,0.0932,0.0962,0.0994,0.0938,0.0941,0.1088,0.1151,0.1179,0.1203,0.09,0.09,0.09,0,0,0.0382,0.0523,0.0603,0.063,0.0742,0.0784,0.0782,0.0861,0.0939,0.104,0.1002,0.1004,0.1025,0.1003,0.097,0.1012,0.0963,0.0915,0.1145,0.12,0.1226,0.125,0.1172,0.1189,0.0976,0.0976,0.0976,0,0.0437,0.0527,0.061,0.0689,0.0719,0.0789,0.0827,0.09,0.1001,0.1068,0.1071,0.11,0.1054,0.105,0.1083,0.1015,0.1039,0.112,0.1213,0.1238,0.1262,0.1178,0.1196,0.0978,0.0978,0.0978,0.0977,0,0.0445,0.0534,0.0588,0.076,0.0783,0.0839,0.0889,0.0992,0.1083,0.1107,0.117,0.1206,0.1228,0.1135,0.1164,0.1252,0.1193,0.1155,0.1217,0.1294,0.1195,0.1214,0.0982,0.0981,0.098,0.0979,0,0,0.0649,0.0625,0.0674,0.0691,0.0834,0.0826,0.0971,0.1069,0.111,0.1235,0.132,0.1327,0.1373,0.136,0.1334,0.147,0.1576,0.148,0.1481,0.143,0.1656,0.1532,0.1537,0.1592,0.1599,0.1605,0.1463,0,0.0748,0.0815,0.0806,0.0832,0.0839,0.0923,0.1004,0.1069,0.1178,0.1262,0.1344,0.1353,0.1431,0.1445,0.1609,0.1557,0.1661,0.1617,0.1575,0.1573,0.1481,0.1571,0.1422,0.1286,0.1481,0.1484,0.1486,0,0.0787,0.0849,0.0905,0.0838,0.0863,0.09,0.1051,0.1092,0.1209,0.1299,0.1439,0.1449,0.1634,0.1679,0.1838,0.1828,0.1835,0.1823,0.1812,0.1755,0.1495,0.1271,0.1312,0.1517,0.1515,0.1512,0.151,0,0.0831,0.087,0.0939,0.0927,0.0913,0.1015,0.1038,0.1143,0.1225,0.1352,0.1441,0.1571,0.1675,0.1798,0.1866,0.1874,0.2001,0.1908,0.178,0.1758,0.1667,0.1631,0.2075,0.2075,0.2075,0.2076,0.2076,0,0.0901,0.0915,0.0958,0.0957,0.1017,0.1001,0.1111,0.1145,0.1284,0.1356,0.1488,0.1645,0.1768,0.1844,0.1884,0.1911,0.1991,0.19,0.1786,0.1652,0.1618,0.1888,0.1868,0.207,0.2071,0.2073,0.2074,0,0.0901,0.0946,0.0917,0.0964,0.102,0.1033,0.1156,0.1208,0.1342,0.1492,0.1562,0.1737,0.1855,0.1874,0.1947,0.1892,0.1884,0.1855,0.1634,0.1505,0.1571,0.1555,0.1678,0.1674,0.1671,0.1668,0.1666,0,0.0895,0.0918,0.0928,0.0989,0.106,0.1139,0.1236,0.1288,0.1377,0.1575,0.1659,0.1804,0.1893,0.1885,0.1851,0.176,0.1848,0.1484,0.1513,0.1692,0.1566,0.1554,0.1543,0.1301,0.1296,0.1292,0.1289,0,0.0856,0.0886,0.086,0.1063,0.1174,0.1197,0.1329,0.1392,0.1482,0.1635,0.1802,0.1853,0.1882,0.1741,0.1586,0.1535,0.1483,0.1393,0.169,0.1445,0.1333,0.1209,0.1211,0.1251,0.1255,0.1258,0.126,0.1261,0.0848,0.0848,0.0935,0.1083,0.1177,0.1269,0.1292,0.1423,0.1521,0.1606,0.1731,0.1713,0.1555,0.1318,0.1286,0.1271,0.1347,0.1163,0.1178,0.1197,0.1201,0.1094,0.0957,0.0959,0.096,0.0962,0.0963,0,0.0821,0.0889,0.1018,0.1134,0.1197,0.1286,0.1375,0.1372,0.1452,0.1461,0.1519,0.1263,0.1087,0.1064,0.0996,0.0905,0.0962,0.0843,0.0886,0.0917,0.0947,0.0945,0.0629,0.0629,0.0629,0.063,0,0,0.0859,0.0897,0.0973,0.1117,0.124,0.1299,0.1301,0.1294,0.1275,0.1191,0.1114,0.0965,0.0935,0.0738,0.0682,0.068,0.0827,0.0669,0.0913,0.0993,0.1025,0.1075,0.1098,0,0,0,0,0]},{"header":{"parameterUnit":"m.s-1","parameterCategory":2,"la1":30.2991,"la2":30.254,"lo1":-89.0895,"lo2":-89.0444,"dy":0.0017,"dx":0.0017,"nx":28,"ny":28,"refTime":"2023-08-06T21:00:00:Z","depth":"2","parameterNumber":3,"parameterNumberName":"V-component_of_CURRENTS"},"data":[0,0,0,0,0,0,0,0,0,0,0,0,0,0,0,0,0,0,0,0,0,0,0,0,0,0,0,0,0,0,0,0,0,0,0,0,0,0,0,0,0,0,0,0,0,0,0,0,0,0,0,0,0,0,0,0,0,0,-0.0006,-0.0007,0,-0.0083,-0.0084,-0.0085,-0.0123,-0.0123,-0.0123,-0.0123,-0.0128,-0.0128,-0.0128,0,0,0,0,0,0,0,0,0,0,0,0,0,0.0096,0.0094,-0.0006,-0.0007,-0.0008,-0.0083,-0.0084,-0.0085,-0.0123,-0.0123,-0.0123,-0.0123,-0.0128,-0.0128,-0.0128,0,0,0,0,0,0,0,0,0,0,0,0,0,0.0038,0.0094,-0.0006,-0.0035,-0.0039,-0.0083,-0.0084,-0.0086,-0.0123,-0.0123,-0.0123,-0.0122,-0.0128,-0.0128,-0.0128,-0.0131,0,0,-0.0129,-0.0129,0,0,0,0,0,0,0,0,0.0042,0.0034,-0.003,-0.0033,-0.0037,-0.0093,-0.0051,-0.0097,-0.0123,-0.0091,-0.0123,-0.0122,-0.0109,-0.0111,-0.0127,-0.0131,-0.0131,-0.0129,-0.0129,-0.0129,-0.0129,0,0,0,0,0,0,0,0.0046,0.0038,-0.0037,-0.0031,-0.0035,-0.005,-0.0058,-0.006,-0.0098,-0.0094,-0.0097,-0.0105,-0.0111,-0.0127,-0.0127,-0.0131,-0.0129,-0.0129,-0.0129,-0.0129,-0.0143,-0.0144,0,0,0,0,0,0,0.0056,0.0041,-0.0034,-0.0039,0.0003,-0.0051,-0.006,-0.0075,-0.01,-0.0104,-0.0105,-0.0106,-0.0126,-0.0127,-0.0127,-0.0124,-0.0129,-0.0129,-0.0129,-0.0143,-0.0143,-0.0144,0,0,0,0,0,0,0.0058,0.005,-0.0031,0.0,-0.0011,-0.0053,-0.007,-0.0077,-0.0094,-0.0109,-0.0112,-0.0115,-0.0126,-0.0127,-0.0149,-0.0125,-0.0129,-0.013,-0.0143,-0.0143,-0.0143,-0.0122,0,0,0,0,0,0,0.0061,0.0051,0.0024,0.0,-0.0013,-0.0052,-0.007,-0.0078,-0.0099,-0.0102,-0.0118,-0.0119,-0.0126,-0.0149,-0.0149,-0.0125,-0.013,-0.0143,-0.0143,-0.0143,-0.0122,-0.0121,-0.0121,0,0,0,0,0,0.0065,0.0058,0.0023,0.0013,-0.0041,-0.0052,-0.006,-0.009,-0.0099,-0.0105,-0.0132,-0.0118,-0.015,-0.015,-0.015,-0.0125,-0.0142,-0.0143,-0.0143,-0.0123,-0.0122,-0.0121,0,0,0,0,0,0,0.0095,0.0052,0.0014,-0.0008,-0.0036,-0.0058,-0.0075,-0.0088,-0.0116,-0.0115,-0.0133,-0.0137,-0.0144,-0.0145,-0.0144,-0.0133,-0.0138,-0.0139,-0.0122,-0.0121,-0.0121,-0.0112,-0.013,0,0,0,0,0,0.0084,0.0053,0.0022,-0.0007,-0.0016,-0.005,-0.0066,-0.0073,-0.0093,-0.0105,-0.0126,-0.0139,-0.0146,-0.0144,-0.0157,-0.0152,-0.0151,-0.0134,-0.0134,-0.0133,-0.0127,-0.0132,-0.0131,-0.0145,-0.0145,-0.0145,0,0,0.0099,0.0053,0.0044,-0.0006,-0.0034,-0.0032,-0.0059,-0.0064,-0.0067,-0.0098,-0.0122,-0.0142,-0.015,-0.0153,-0.0152,-0.0148,-0.0126,-0.0133,-0.0132,-0.0127,-0.0132,-0.0131,-0.013,-0.0146,-0.0146,-0.0145,0,0,0.0114,0.0061,0.0048,0.003,-0.001,-0.0023,-0.0021,-0.0044,-0.0064,-0.0092,-0.0108,-0.0126,-0.0147,-0.0146,-0.0146,-0.0147,-0.0129,-0.0137,-0.0113,-0.0118,-0.0117,-0.0115,-0.0098,-0.0095,-0.0126,-0.0126,-0.0126,0,0.0098,0.0097,0.0046,0.0033,0.0024,-0.0012,0.0003,-0.002,-0.0052,-0.0059,-0.0096,-0.0134,-0.0144,-0.0129,-0.0133,-0.0142,-0.0136,-0.0114,-0.0116,-0.0115,-0.0114,-0.0096,-0.0093,-0.0125,-0.0125,-0.0126,-0.0126,0,0.0132,0.012,0.0117,0.0078,0.0062,0.0074,0.0046,0.0032,-0.0005,-0.0027,-0.0053,-0.0099,-0.011,-0.0115,-0.0128,-0.0109,-0.0104,-0.0121,-0.0115,-0.0111,-0.0093,-0.009,-0.0124,-0.0124,-0.0125,-0.0125,0,0,0.0084,0.0131,0.0115,0.0119,0.0096,0.0086,0.0089,0.008,0.0091,0.0023,0.0024,-0.0026,-0.0051,-0.0054,-0.0069,-0.008,-0.0072,-0.0092,-0.0093,-0.0067,-0.0061,-0.0041,-0.0037,-0.0088,-0.0088,-0.0087,-0.0046,0,0.0099,0.0125,0.0137,0.0154,0.0171,0.0154,0.0157,0.0142,0.0118,0.0109,0.0053,0.0043,-0.0024,-0.002,-0.0048,-0.0064,-0.0067,-0.008,-0.0075,-0.0075,-0.0052,-0.0034,-0.008,-0.0046,-0.0044,-0.0043,-0.0043,0,0.0118,0.0118,0.0172,0.0202,0.0205,0.0212,0.0213,0.0218,0.0215,0.0197,0.0171,0.0139,0.0114,0.0051,0.0004,0.0001,-0.0025,-0.0053,-0.0052,-0.0039,-0.0051,-0.0054,-0.0042,-0.0039,-0.0039,-0.004,-0.004,0,0.0104,0.014,0.0186,0.0193,0.0223,0.0231,0.0236,0.0242,0.026,0.0267,0.0284,0.0232,0.0215,0.0152,0.0068,0.0054,0.0016,-0.0005,-0.0011,-0.0009,-0.0049,-0.0051,-0.0028,-0.0028,-0.0028,-0.0028,-0.0028,0,0.0116,0.0139,0.0188,0.0194,0.023,0.0236,0.0277,0.0287,0.032,0.0358,0.0329,0.0353,0.0237,0.0196,0.0114,0.0055,0.005,0.0004,0.0003,-0.0041,-0.0043,-0.0046,-0.0048,-0.0026,-0.0027,-0.0027,-0.0027,0,0.0112,0.0161,0.0206,0.0231,0.0239,0.0257,0.0306,0.0344,0.0374,0.0429,0.0438,0.0446,0.04,0.0283,0.0199,0.0133,0.0067,0.0049,0.0015,0.0009,0.0044,0.0042,0.0079,0.008,0.0081,0.0081,0.0082,0,0.0136,0.0163,0.0209,0.0242,0.0258,0.029,0.0324,0.036,0.041,0.0488,0.0521,0.0517,0.0528,0.0417,0.0271,0.0153,0.0105,0.0062,0.0023,0.006,0.0055,0.0052,0.0048,-0.0018,-0.0018,-0.0018,-0.0018,0,0.0153,0.0178,0.0193,0.025,0.0294,0.0366,0.0412,0.0464,0.052,0.0589,0.068,0.071,0.0598,0.046,0.0292,0.0212,0.0074,0.006,0.0098,-0.0034,-0.0026,-0.0033,-0.0034,-0.002,-0.002,-0.002,-0.002,-0.002,0.0142,0.0178,0.021,0.0269,0.0332,0.0443,0.0514,0.0597,0.0708,0.0818,0.0805,0.0819,0.0563,0.0361,0.0222,0.0101,0.0124,0.0041,0.004,0.0039,0.0024,0.0033,0.0049,0.0049,0.005,0.005,0.0051,0,0.0142,0.019,0.0234,0.032,0.0404,0.0445,0.0577,0.0672,0.0833,0.0872,0.0952,0.0694,0.0546,0.0312,0.0129,0.0032,0.0013,-0.0006,-0.0057,-0.0055,-0.0053,-0.0074,-0.0075,-0.0075,-0.0075,-0.0075,0,0,0.0154,0.0207,0.0246,0.038,0.0442,0.0588,0.0688,0.0843,0.0904,0.0969,0.0921,0.0823,0.0505,0.0297,0.0116,0.0038,0.0043,0.004,0.0146,0.0108,0.0113,-0.0029,-0.0059,0,0,0,0,0]}],[{"header":{"parameterUnit":"m.s-1","parameterCategory":2,"la1":30.2991,"la2":30.254,"lo1":-89.0895,"lo2":-89.0444,"dy":0.0017,"dx":0.0017,"nx":28,"ny":28,"refTime":"2023-08-06T21:00:00:Z","depth":"4","parameterNumber":2,"parameterNumberName":"U-component_of_CURRENTS"},"data":[0,0,0,0,0,0,0,0,0,0,0,0,0,0,0,0,0,0,0,0,0,0,0,0,0,0,0,0,0,0,0,0,0,0,0,0,0,0,0,0,0,0,0,0,0,0,0,0,0,0,0,0,0,0,0,0,0,0,-0.0812,-0.0813,0,-0.0863,-0.0864,-0.0864,-0.0903,-0.0903,-0.0904,-0.0904,-0.0945,-0.0946,-0.0947,0,0,0,0,0,0,0,0,0,0,0,0,0,-0.0784,-0.0784,-0.0812,-0.0813,-0.0814,-0.0863,-0.0864,-0.0864,-0.0903,-0.0903,-0.0904,-0.0904,-0.0945,-0.0946,-0.0947,0,0,0,0,0,0,0,0,0,0,0,0,0,-0.0811,-0.0784,-0.0812,-0.0839,-0.0842,-0.0863,-0.0864,-0.0865,-0.0903,-0.0903,-0.0904,-0.0905,-0.0945,-0.0946,-0.0947,-0.0942,0,0,-0.095,-0.0951,0,0,0,0,0,0,0,0,-0.0809,-0.0812,-0.0835,-0.0837,-0.0841,-0.0878,-0.0869,-0.089,-0.0903,-0.0879,-0.0904,-0.0905,-0.0922,-0.0925,-0.0932,-0.0944,-0.0945,-0.095,-0.0951,-0.0951,-0.0952,0,0,0,0,0,0,0,-0.0807,-0.081,-0.0832,-0.0835,-0.0839,-0.0861,-0.0865,-0.0873,-0.0896,-0.0881,-0.0884,-0.0891,-0.0923,-0.0931,-0.0934,-0.0946,-0.095,-0.0951,-0.0952,-0.0952,-0.1067,-0.1069,0,0,0,0,0,0,-0.0799,-0.0808,-0.083,-0.0834,-0.0827,-0.0861,-0.0865,-0.0865,-0.0896,-0.0902,-0.089,-0.0892,-0.0929,-0.0932,-0.0935,-0.1009,-0.0951,-0.0952,-0.0953,-0.1064,-0.1067,-0.107,0,0,0,0,0,0,-0.0798,-0.0801,-0.0828,-0.0823,-0.0828,-0.086,-0.086,-0.0866,-0.0889,-0.0903,-0.0908,-0.0909,-0.093,-0.0934,-0.0952,-0.1008,-0.0953,-0.0954,-0.1062,-0.1065,-0.1069,-0.1106,0,0,0,0,0,0,-0.0797,-0.08,-0.0818,-0.0822,-0.0828,-0.0846,-0.0859,-0.0866,-0.0891,-0.0895,-0.0921,-0.0924,-0.0931,-0.095,-0.0953,-0.1008,-0.0955,-0.1059,-0.1063,-0.1067,-0.1102,-0.1111,-0.1118,0,0,0,0,0,-0.0796,-0.0818,-0.0818,-0.0822,-0.0844,-0.0846,-0.0851,-0.0876,-0.0892,-0.09,-0.0918,-0.0925,-0.0983,-0.0951,-0.0954,-0.1012,-0.1056,-0.1062,-0.1067,-0.1098,-0.1109,-0.1118,0,0,0,0,0,0,-0.0815,-0.0824,-0.0824,-0.0848,-0.0846,-0.0853,-0.0881,-0.0883,-0.0905,-0.0916,-0.0927,-0.0932,-0.0977,-0.0985,-0.0951,-0.1063,-0.1032,-0.1038,-0.1055,-0.1065,-0.1073,-0.1068,-0.0956,0,0,0,0,0,-0.0824,-0.0844,-0.0839,-0.0857,-0.0864,-0.0872,-0.0885,-0.0886,-0.0898,-0.091,-0.0929,-0.0964,-0.1,-0.1021,-0.1044,-0.1086,-0.1092,-0.1137,-0.1145,-0.1151,-0.1152,-0.1208,-0.1221,-0.1088,-0.1087,-0.1087,0,0,-0.0834,-0.0845,-0.0855,-0.0864,-0.0875,-0.0871,-0.0882,-0.0897,-0.0901,-0.0909,-0.0945,-0.098,-0.1015,-0.1069,-0.1094,-0.1083,-0.1192,-0.1158,-0.1163,-0.1161,-0.1215,-0.1228,-0.1239,-0.1091,-0.1091,-0.109,0,0,-0.0852,-0.0875,-0.0891,-0.0889,-0.0899,-0.0894,-0.0896,-0.0905,-0.0928,-0.0946,-0.0975,-0.1019,-0.1075,-0.1107,-0.1133,-0.1194,-0.1226,-0.1248,-0.129,-0.1345,-0.1355,-0.1365,-0.1379,-0.139,-0.1261,-0.1261,-0.1261,0,-0.087,-0.0875,-0.0895,-0.09,-0.0904,-0.0901,-0.0898,-0.0912,-0.0925,-0.096,-0.0963,-0.1075,-0.1084,-0.1167,-0.1205,-0.1207,-0.1254,-0.1244,-0.1353,-0.1363,-0.1372,-0.1384,-0.1395,-0.1263,-0.1263,-0.1263,-0.1263,0,-0.0874,-0.0888,-0.09,-0.09,-0.0908,-0.0905,-0.0911,-0.0929,-0.0957,-0.0985,-0.1075,-0.1102,-0.1183,-0.1208,-0.1226,-0.133,-0.1345,-0.1346,-0.132,-0.1387,-0.1396,-0.1407,-0.1267,-0.1266,-0.1265,-0.1265,0,0,-0.0882,-0.09,-0.0905,-0.0902,-0.0905,-0.0902,-0.0925,-0.0953,-0.0979,-0.104,-0.1114,-0.1186,-0.125,-0.1284,-0.1332,-0.1378,-0.1462,-0.1417,-0.1419,-0.1415,-0.1595,-0.1331,-0.1317,-0.1519,-0.1522,-0.1524,-0.1571,0,-0.0875,-0.0881,-0.0897,-0.0892,-0.0886,-0.0902,-0.0926,-0.0959,-0.0995,-0.1066,-0.1156,-0.126,-0.1271,-0.1355,-0.1397,-0.1466,-0.1499,-0.1449,-0.1544,-0.1545,-0.129,-0.1322,-0.1532,-0.1578,-0.1581,-0.1583,-0.1584,0,-0.0868,-0.0867,-0.0872,-0.0885,-0.0891,-0.0903,-0.0937,-0.0964,-0.1062,-0.1117,-0.1235,-0.1326,-0.1459,-0.1445,-0.1568,-0.1565,-0.1587,-0.1603,-0.1605,-0.135,-0.13,-0.1504,-0.1603,-0.1602,-0.16,-0.1599,-0.1598,0,-0.0836,-0.0853,-0.0859,-0.0857,-0.0871,-0.0908,-0.0943,-0.1005,-0.1039,-0.1207,-0.1276,-0.1423,-0.1529,-0.1607,-0.1626,-0.1665,-0.1697,-0.1744,-0.1505,-0.1487,-0.1696,-0.1686,-0.1794,-0.1794,-0.1794,-0.1794,-0.1794,0,-0.081,-0.081,-0.0859,-0.0843,-0.0871,-0.092,-0.0951,-0.1016,-0.1112,-0.1148,-0.135,-0.1352,-0.1589,-0.1623,-0.1651,-0.1567,-0.1718,-0.1499,-0.1479,-0.171,-0.1701,-0.1702,-0.1691,-0.1796,-0.1795,-0.1795,-0.1795,0,-0.0772,-0.0797,-0.0792,-0.0828,-0.0851,-0.0893,-0.0954,-0.0969,-0.1107,-0.1165,-0.1263,-0.1378,-0.1397,-0.1507,-0.1579,-0.1556,-0.1527,-0.1442,-0.1634,-0.1626,-0.1296,-0.1287,-0.1266,-0.1257,-0.125,-0.1243,-0.1238,0,-0.0753,-0.0748,-0.0772,-0.0777,-0.0805,-0.0854,-0.0873,-0.0976,-0.0976,-0.1077,-0.1089,-0.1177,-0.122,-0.1119,-0.1214,-0.1254,-0.1221,-0.1281,-0.134,-0.1258,-0.1243,-0.1246,-0.1247,-0.1226,-0.1224,-0.1222,-0.122,0,-0.0696,-0.0718,-0.0705,-0.0706,-0.0736,-0.0732,-0.0772,-0.0758,-0.0852,-0.0987,-0.0904,-0.0934,-0.0887,-0.091,-0.0939,-0.0946,-0.1315,-0.1203,-0.1222,-0.1278,-0.1209,-0.1202,-0.1212,-0.1193,-0.1197,-0.12,-0.1201,0,-0.0661,-0.0641,-0.0623,-0.0635,-0.064,-0.0605,-0.0629,-0.0599,-0.0618,-0.0757,-0.0645,-0.0702,-0.0771,-0.0728,-0.07,-0.0738,-0.0775,-0.0872,-0.091,-0.094,-0.0808,-0.0672,-0.046,0,0,0,0,0,-0.0613,-0.0575,-0.0549,-0.0511,-0.0503,-0.0518,-0.0542,-0.0563,-0.0634,-0.0552,-0.0615,-0.054,-0.0523,-0.0491,-0.047,-0.0563,-0.0793,-0.0542,-0.0927,-0.1046,-0.1077,-0.095,0,0,0,0,0,0,-0.0569,-0.0539,-0.0513,-0.0409,-0.0369,-0.034,-0.0363,-0.0417,-0.0346,-0.0437,-0.0384,-0.0511,-0.0452,-0.0513,-0.045,-0.0465,-0.0703,-0.0576,-0.0575,-0.1029,-0.1057,-0.1081,-0.0962,0,0,0,0,0]},{"header":{"parameterUnit":"m.s-1","parameterCategory":2,"la1":30.2991,"la2":30.254,"lo1":-89.0895,"lo2":-89.0444,"dy":0.0017,"dx":0.0017,"nx":28,"ny":28,"refTime":"2023-08-06T21:00:00:Z","depth":"4","parameterNumber":3,"parameterNumberName":"V-component_of_CURRENTS"},"data":[0,0,0,0,0,0,0,0,0,0,0,0,0,0,0,0,0,0,0,0,0,0,0,0,0,0,0,0,0,0,0,0,0,0,0,0,0,0,0,0,0,0,0,0,0,0,0,0,0,0,0,0,0,0,0,0,0,0,0.0238,0.0238,0,0.0202,0.0201,0.02,0.02,0.0201,0.0202,0.0203,0.0192,0.0191,0.019,0,0,0,0,0,0,0,0,0,0,0,0,0,0.0218,0.0219,0.0238,0.0238,0.0238,0.0202,0.0201,0.02,0.02,0.0201,0.0202,0.0203,0.0193,0.0191,0.019,0,0,0,0,0,0,0,0,0,0,0,0,0,0.0204,0.0219,0.0238,0.0237,0.0237,0.0202,0.0201,0.0199,0.02,0.0201,0.0202,0.0204,0.0193,0.0191,0.019,0.0151,0,0,0.0184,0.0184,0,0,0,0,0,0,0,0,0.0205,0.0204,0.0238,0.0237,0.0237,0.0211,0.019,0.0186,0.0199,0.0208,0.0203,0.0204,0.0203,0.0201,0.0183,0.015,0.015,0.0184,0.0183,0.0183,0.0182,0,0,0,0,0,0,0,0.0206,0.0205,0.0218,0.0238,0.0237,0.0209,0.0209,0.0188,0.0195,0.0208,0.0209,0.0213,0.0203,0.0185,0.0183,0.015,0.0184,0.0183,0.0182,0.0181,0.0114,0.0113,0,0,0,0,0,0,0.0224,0.0207,0.022,0.0218,0.023,0.0209,0.0208,0.0214,0.0195,0.0194,0.0211,0.0213,0.0187,0.0185,0.0183,0.0146,0.0183,0.0181,0.018,0.0115,0.0114,0.0113,0,0,0,0,0,0,0.0224,0.0226,0.0221,0.0215,0.0213,0.0209,0.0214,0.0213,0.0201,0.0198,0.0198,0.0204,0.0188,0.0185,0.0156,0.0145,0.018,0.0179,0.0116,0.0114,0.0113,0.0065,0,0,0,0,0,0,0.0223,0.0226,0.0223,0.0217,0.0215,0.0202,0.0214,0.0211,0.0203,0.0205,0.0191,0.0191,0.0189,0.0158,0.0154,0.0144,0.0177,0.0117,0.0115,0.0114,0.0068,0.0062,0.0058,0,0,0,0,0,0.0223,0.022,0.0223,0.0224,0.0216,0.0202,0.0197,0.0195,0.0202,0.019,0.0174,0.0192,0.0148,0.0155,0.0151,0.014,0.0117,0.0116,0.0114,0.007,0.0063,0.0058,0,0,0,0,0,0,0.0201,0.0219,0.0223,0.0223,0.0215,0.0204,0.0193,0.0192,0.0168,0.017,0.0167,0.0165,0.0135,0.0143,0.0151,0.0118,0.0141,0.0138,0.0109,0.0103,0.0099,0.0105,0.0176,0,0,0,0,0,0.0198,0.0205,0.021,0.0206,0.0205,0.0196,0.0188,0.0188,0.0174,0.0165,0.0154,0.0144,0.0121,0.0118,0.0098,0.0074,0.0106,0.007,0.0065,0.0061,0.0064,0.0106,0.0106,0.0108,0.0108,0.0108,0,0,0.0188,0.0199,0.0201,0.0202,0.0194,0.0168,0.0193,0.0183,0.0154,0.0167,0.0121,0.0118,0.0108,0.0076,0.0067,0.0085,0.0074,0.0059,0.0055,0.0061,0.0105,0.0105,0.0105,0.0106,0.0107,0.0107,0,0,0.0165,0.0182,0.0174,0.0164,0.0161,0.0151,0.0151,0.0139,0.013,0.0091,0.0091,0.0075,0.0049,0.0034,0.0024,-0.0019,0.0039,-0.0005,-0.0017,0.0023,0.0024,0.0025,0.0053,0.0057,0.0003,0.0003,0.0003,0,0.0152,0.0136,0.0165,0.0143,0.0121,0.0142,0.0103,0.0093,0.007,0.0051,0.0075,0.003,0.0021,-0.0019,-0.0025,-0.0032,0.0015,0.0003,0.0018,0.002,0.0022,0.0051,0.0056,0.0,0.0001,0.0001,0.0001,0,0.0117,0.0092,0.0084,0.0062,0.0044,0.0018,0.0012,-0.0007,-0.0008,-0.0018,-0.0046,-0.0046,-0.0063,-0.0065,-0.0058,-0.0053,-0.0018,-0.0,0.0035,0.0019,0.005,0.0056,-0.0003,-0.0002,-0.0002,-0.0001,0,0,0.0107,0.0067,0.0058,0.0023,-0.0005,-0.0022,-0.0069,-0.0109,-0.0146,-0.0128,-0.0172,-0.0177,-0.0139,-0.0145,-0.0123,-0.008,-0.0038,-0.0018,-0.0015,0.0013,0.0068,-0.0012,-0.0013,0.0009,0.001,0.0011,0.008,0,0.0058,0.0002,-0.0014,-0.0093,-0.0128,-0.0141,-0.0194,-0.0219,-0.0234,-0.0266,-0.0227,-0.0248,-0.0178,-0.0173,-0.0119,-0.0053,-0.002,-0.0058,0.0077,0.008,0.0014,-0.0009,0.0014,0.0085,0.0087,0.0088,0.0089,0,0.0016,-0.0018,-0.0095,-0.0179,-0.0197,-0.0244,-0.0321,-0.0364,-0.0393,-0.0398,-0.0375,-0.0334,-0.0272,-0.0216,-0.0071,-0.0079,-0.0012,0.0045,0.0049,-0.0003,0.0011,0.0108,0.01,0.01,0.0099,0.0098,0.0097,0,-0.0001,-0.0086,-0.015,-0.0176,-0.0256,-0.0305,-0.0352,-0.0405,-0.0447,-0.0465,-0.0475,-0.0392,-0.0342,-0.0215,-0.0076,-0.005,0.007,0.0109,0.0087,0.0083,0.016,0.0158,0.0176,0.0176,0.0176,0.0176,0.0176,0,-0.005,-0.0105,-0.0163,-0.0199,-0.0292,-0.0334,-0.0432,-0.0472,-0.0527,-0.056,-0.052,-0.0506,-0.0326,-0.0233,-0.0102,0.0012,0.0058,0.0076,0.0092,0.0135,0.0129,0.0164,0.0161,0.0178,0.0178,0.0177,0.0177,0,-0.0068,-0.0104,-0.0184,-0.0271,-0.0302,-0.0367,-0.0472,-0.0532,-0.0575,-0.0614,-0.0604,-0.0556,-0.0432,-0.0301,-0.0123,-0.004,0.0073,0.008,0.0094,0.011,0.0071,0.0065,0.0095,0.0093,0.0091,0.0089,0.0088,0,-0.0085,-0.012,-0.0219,-0.0267,-0.0315,-0.0407,-0.0468,-0.0544,-0.0575,-0.0627,-0.0618,-0.0569,-0.0511,-0.0311,-0.0197,-0.002,-0.0006,0.0053,0.0086,0.0049,0.0062,0.0059,0.0056,0.0085,0.0084,0.0084,0.0083,0,-0.0121,-0.015,-0.0206,-0.0285,-0.036,-0.0456,-0.0523,-0.0538,-0.0595,-0.0634,-0.0589,-0.0537,-0.0461,-0.0312,-0.0225,-0.0088,0.0033,0.0034,0.0041,0.0072,0.0037,0.0051,0.005,0.0076,0.0077,0.0078,0.0078,0,-0.0141,-0.0186,-0.0239,-0.0303,-0.0393,-0.0464,-0.0514,-0.0522,-0.0558,-0.0563,-0.0544,-0.0501,-0.0457,-0.0355,-0.0252,-0.016,-0.0114,-0.0034,-0.0023,-0.0014,-0.0085,-0.0148,-0.0157,0,0,0,0,0,-0.0166,-0.0196,-0.0253,-0.0328,-0.0403,-0.0453,-0.0525,-0.0555,-0.0568,-0.0516,-0.0524,-0.0449,-0.0362,-0.0341,-0.0253,-0.0308,-0.0124,-0.0207,-0.0029,0.0038,0.0046,-0.0028,0,0,0,0,0,0,-0.0192,-0.0241,-0.0245,-0.0307,-0.035,-0.0447,-0.0493,-0.0518,-0.0465,-0.0464,-0.0401,-0.0407,-0.0311,-0.0383,-0.0236,-0.0227,-0.0099,-0.0177,-0.0175,0.0034,0.0041,0.0047,-0.0026,0,0,0,0,0]}]]